Showing default

FOSSASAT2E21, 64536

Orbit data source: Space-Track

FOSSASAT2E21, 64536 is a payload satellite owned by WiseKey (ES) in SSO that was launched on Mon, 23 Jun 2025 UTC via an FALCON 9 launch vehicle from the Air Force Western Test Range (AFWTR). Payload-class satellites include a variety of spacecraft equipped with specific instruments for various scientific and technological missions. These include communications satellites like Starlink; space stations such as the ISS; scientific satellites like the Hubble; Earth observation satellites from companies like Planet Labs, Umbra, and HawkEye 360; GPS; miniature CubeSats for education and research; and military/defense satellites.

Loading next visibility...
Identifier
64536, 2025-135J
Orbit
SSO
Country
Flag of ESES / SPN
Related business
Manufacturer
Fossa Systems
Mission
Operational Commercial Communications
Bus & Motor
CUBESAT 3U, Unknown motor
Mass
4 kg wet, 4 kg dry
Launch date (UTC)
2025-06-23 (10 months ago)
Launch vehicle
FALCON 9
Launch site
Air Force Western Test Range (AFWTR)
Object type
Payload
Rocket body
Debris
Shape & HBR
Box + 2 Pan, 0.1 m
Radar Cross Section
0.035 m², Medium (>0.1 m² and < 1m²)

Expand to show TLE details & history
Last TLE update: 9 hours ago

TLE from 9 hours ago
0 FOSSASAT2E21
1 64536U 25135J   26104.87361740  .00002038  00000-0  98853-4 0  9999
2 64536  97.4564 219.9159 0005430  58.8498 301.3268 15.19630196 45206
Epoch: 2026-04-14T20:58Z
TLE epoch observation values (Epoch: 2026-04-14T20:58:00.543Z)
Latitude
-0.00008°
Longitude
62.37003°
Altitude
508.103 km
Speed
7.611 km/s
True Right ascension
14h 39m 39s
True Declination
0° 00' 00"
Sunlit
Object was in full shadow at epoch
Visualization orbit readout
Latitude
Unknown
Longitude
Unknown
Altitude
Unknown
Speed
Unknown
Apparent Right ascension
Unknown
Apparent Declination
Unknown
Sunlit
N/A
Visualization observer readout
Local Sidereal Time
12:16:59
Azimuth
Unknown
Elevation
Unknown
Doppler factor
Unknown
Orbital elements
Apogee altitude
507.663 km
Perigee altitude
500.189 km
Semi-major axis
6,882.063 km
Eccentricity
0.00054
Inclination
97.4564°
RAAN
219.9159°
Arg. of periapsis
58.8498°
True anomaly
301.27363°
Mean anomaly
301.3268°
Eccentric anomaly
301.30022°
Mean motion
3.80159 °/min
Orbital period
94.7 mins
BSTAR
0.000098853
Loading maneuver chart data...
Computing Atmospheric mass density...
Loading historical data...
Loading historical data...
Loading historical data...
Loading historical data...
Loading historical data...
Loading historical data...
Loading historical data...

Documentation

Showing up to 5 results
|